When you browse on this site, cookies collect data to enhance your experience and personalize the content and advertising you see.
Visit our Privacy Policy to learn more. By continuing to use the site, you agree to this use of cookies and data.
  • In Austria
  • List of Countries
  • For 7 days
  • Water Temperature
  • Weather Map
  • News
  • Weather Widgets
  • user-avatar
    Login

    Hourly Weather Trinidad

    Today, 26 January, Sunday

    Time Temperature Precipitation Wind Pressure Humidity
    00:00 +27°C° 0 mm 1 mps 742 mmHg 83%
    01:00 +27°C° 0 mm 1 mps 742 mmHg 84%
    02:00 +27°C° 0 mm 1 mps 742 mmHg 84%
    03:00 +27°C° 0 mm 1 mps 742 mmHg 86%
    04:00 +27°C° 0 mm 1 mps 742 mmHg 88%
    05:00 +26°C° 0 mm 1 mps 742 mmHg 89%
    06:00 +27°C° 0 mm 1 mps 742 mmHg 86%
    07:00 +28°C° 0 mm 1 mps 743 mmHg 83%
    08:00 +29°C° 0 mm 1 mps 743 mmHg 80%
    09:00 +31°C° 0 mm 1 mps 744 mmHg 72%
    10:00 +33°C° 0 mm 1 mps 744 mmHg 64%
    11:00 +36°C° 0 mm 2 mps 744 mmHg 56%
    12:00 +36°C° 0 mm 1 mps 743 mmHg 53%
    13:00 +37°C° 0 mm 1 mps 742 mmHg 50%
    14:00 +39°C° 0 mm 1 mps 741 mmHg 47%
    15:00 +37°C° 0 mm 1 mps 741 mmHg 50%
    16:00 +37°C° 0 mm 2 mps 740 mmHg 54%
    17:00 +37°C° 0 mm 2 mps 739 mmHg 57%
    18:00 +35°C° 0 mm 2 mps 740 mmHg 64%
    19:00 +32°C° 0 mm 2 mps 740 mmHg 71%
    20:00 +30°C° 0 mm 2 mps 740 mmHg 78%
    21:00 +29°C° 0 mm 2 mps 741 mmHg 80%
    22:00 +29°C° 0 mm 1 mps 741 mmHg 82%
    23:00 +28°C° 0 mm 1 mps 742 mmHg 84%

    Tomorrow, 27 January, Monday

    Time Temperature Precipitation Wind Pressure Humidity
    00:00 +28°C° 0 mm 1 mps 742 mmHg 85%
    01:00 +28°C° 0 mm 1 mps 741 mmHg 85%
    02:00 +28°C° 0 mm 1 mps 741 mmHg 86%
    03:00 +27°C° 0 mm 1 mps 741 mmHg 86%
    04:00 +27°C° 0 mm 1 mps 741 mmHg 87%
    05:00 +27°C° 0 mm 1 mps 741 mmHg 87%
    06:00 +28°C° 0 mm 1 mps 742 mmHg 84%
    07:00 +29°C° 0 mm 1 mps 742 mmHg 81%
    08:00 +30°C° 0 mm 1 mps 743 mmHg 78%
    09:00 +32°C° 0 mm 1 mps 743 mmHg 70%
    10:00 +35°C° 0 mm 2 mps 743 mmHg 63%
    11:00 +37°C° 0 mm 2 mps 743 mmHg 55%
    12:00 +37°C° 0.1 mm 2 mps 743 mmHg 53%
    13:00 +38°C° 0.1 mm 2 mps 742 mmHg 50%
    14:00 +39°C° 0.1 mm 2 mps 741 mmHg 47%
    15:00 +38°C° 0 mm 2 mps 740 mmHg 49%
    16:00 +38°C° 0 mm 2 mps 740 mmHg 52%
    17:00 +37°C° 0 mm 2 mps 739 mmHg 54%
    18:00 +35°C° 0.1 mm 2 mps 740 mmHg 63%
    19:00 +31°C° 0.1 mm 2 mps 740 mmHg 72%
    20:00 +29°C° 0.1 mm 2 mps 740 mmHg 81%
    21:00 +28°C° 0 mm 1 mps 740 mmHg 83%
    22:00 +28°C° 0 mm 1 mps 741 mmHg 84%
    23:00 +28°C° 0 mm 1 mps 742 mmHg 85%

    Day after tomorrow, 28 January, Tuesday

    Time Temperature Precipitation Wind Pressure Humidity
    00:00 +28°C° 0 mm 1 mps 741 mmHg 85%
    01:00 +28°C° 0 mm 1 mps 741 mmHg 86%
    02:00 +28°C° 0 mm 1 mps 741 mmHg 86%
    03:00 +27°C° 0.4 mm 1 mps 741 mmHg 88%
    04:00 +27°C° 0.4 mm 1 mps 741 mmHg 90%
    05:00 +26°C° 0.4 mm 1 mps 741 mmHg 92%
    06:00 +25°C° 0.5 mm 0 mps 742 mmHg 91%
    07:00 +26°C° 0.5 mm 0 mps 742 mmHg 90%
    08:00 +26°C° 0.5 mm 0 mps 743 mmHg 89%
    09:00 +28°C° 0.9 mm 0 mps 743 mmHg 80%
    10:00 +30°C° 0.9 mm 0 mps 743 mmHg 72%
    11:00 +34°C° 0.9 mm 1 mps 743 mmHg 63%
    12:00 +35°C° 0 mm 1 mps 742 mmHg 58%
    13:00 +36°C° 0 mm 1 mps 741 mmHg 52%
    14:00 +38°C° 0 mm 2 mps 740 mmHg 47%
    15:00 +37°C° 0 mm 2 mps 740 mmHg 52%
    16:00 +36°C° 0 mm 2 mps 739 mmHg 56%
    17:00 +35°C° 0 mm 3 mps 738 mmHg 60%
    18:00 +32°C° 0 mm 2 mps 739 mmHg 67%
    19:00 +31°C° 0 mm 2 mps 739 mmHg 73%
    20:00 +29°C° 0 mm 1 mps 739 mmHg 80%
    21:00 +29°C° 0 mm 1 mps 739 mmHg 81%
    22:00 +28°C° 0 mm 1 mps 740 mmHg 83%
    23:00 +28°C° 0 mm 1 mps 741 mmHg 85%

    29 January, Wednesday

    Time Temperature Precipitation Wind Pressure Humidity
    00:00 +27°C° 0 mm 1 mps 740 mmHg 87%
    01:00 +27°C° 0 mm 1 mps 740 mmHg 89%
    02:00 +27°C° 0 mm 1 mps 740 mmHg 91%
    03:00 +27°C° 0 mm 1 mps 740 mmHg 92%
    04:00 +26°C° 0 mm 1 mps 740 mmHg 93%
    05:00 +26°C° 0 mm 1 mps 740 mmHg 94%
    06:00 +27°C° 0 mm 2 mps 740 mmHg 91%
    07:00 +27°C° 0 mm 2 mps 741 mmHg 88%
    08:00 +28°C° 0 mm 3 mps 742 mmHg 84%
    09:00 +29°C° 0.3 mm 3 mps 742 mmHg 80%
    10:00 +31°C° 0.3 mm 3 mps 742 mmHg 76%
    11:00 +33°C° 0.3 mm 3 mps 742 mmHg 71%
    12:00 +33°C° 1.1 mm 3 mps 741 mmHg 72%
    13:00 +33°C° 1.1 mm 3 mps 740 mmHg 73%
    14:00 +34°C° 1.1 mm 3 mps 740 mmHg 73%
    15:00 +33°C° 1.6 mm 3 mps 739 mmHg 77%
    16:00 +31°C° 1.6 mm 3 mps 739 mmHg 81%
    17:00 +30°C° 1.6 mm 3 mps 739 mmHg 85%
    18:00 +29°C° 0.1 mm 3 mps 739 mmHg 86%
    19:00 +28°C° 0.1 mm 3 mps 740 mmHg 87%
    20:00 +28°C° 0.1 mm 3 mps 740 mmHg 88%
    21:00 +27°C° 0 mm 2 mps 741 mmHg 88%
    22:00 +27°C° 0 mm 2 mps 741 mmHg 88%
    23:00 +27°C° 0 mm 2 mps 742 mmHg 88%

    30 January, Thursday

    Time Temperature Precipitation Wind Pressure Humidity
    00:00 +26°C° 1.1 mm 2 mps 742 mmHg 90%
    01:00 +26°C° 1.1 mm 2 mps 741 mmHg 93%
    02:00 +25°C° 1.1 mm 2 mps 741 mmHg 95%
    03:00 +25°C° 0.9 mm 2 mps 741 mmHg 95%
    04:00 +25°C° 0.9 mm 2 mps 742 mmHg 95%
    05:00 +25°C° 0.9 mm 2 mps 742 mmHg 96%
    06:00 +26°C° 0.7 mm 2 mps 742 mmHg 95%
    07:00 +26°C° 0.7 mm 3 mps 743 mmHg 94%
    08:00 +26°C° 0.7 mm 3 mps 744 mmHg 93%
    09:00 +27°C° 0.3 mm 3 mps 744 mmHg 89%
    10:00 +28°C° 0.3 mm 3 mps 744 mmHg 85%
    11:00 +28°C° 0.3 mm 3 mps 745 mmHg 82%
    12:00 +28°C° 0.9 mm 2 mps 744 mmHg 83%
    13:00 +28°C° 0.9 mm 2 mps 744 mmHg 83%
    14:00 +29°C° 0.9 mm 2 mps 743 mmHg 84%
    15:00 +28°C° 1.5 mm 1 mps 743 mmHg 88%
    16:00 +27°C° 1.5 mm 1 mps 742 mmHg 91%
    17:00 +26°C° 1.5 mm 1 mps 742 mmHg 95%
    18:00 +26°C° 0 mm 1 mps 742 mmHg 95%
    19:00 +23°C° 0 mm 0 mps 742 mmHg 96%
    20:00 +23°C° 0 mm 0 mps 743 mmHg 96%
    21:00 +23°C° 0 mm 0 mps 743 mmHg 96%
    22:00 +23°C° 0 mm 0 mps 744 mmHg 96%
    23:00 +23°C° 0 mm 0 mps 745 mmHg 96%

    31 January, Friday

    Time Temperature Precipitation Wind Pressure Humidity
    00:00 +24°C° 0.6 mm 1 mps 744 mmHg 97%
    01:00 +24°C° 0.6 mm 1 mps 744 mmHg 97%
    02:00 +24°C° 0.6 mm 1 mps 743 mmHg 98%
    03:00 +24°C° 1 mm 1 mps 743 mmHg 98%
    04:00 +24°C° 1 mm 1 mps 743 mmHg 98%
    05:00 +24°C° 1 mm 1 mps 743 mmHg 98%
    06:00 +24°C° 0.9 mm 1 mps 744 mmHg 98%
    07:00 +25°C° 0.9 mm 1 mps 744 mmHg 97%
    08:00 +25°C° 0.9 mm 1 mps 745 mmHg 97%
    09:00 +23°C° 1.3 mm 0 mps 745 mmHg 97%
    10:00 +23°C° 1.3 mm 0 mps 746 mmHg 97%
    11:00 +24°C° 1.3 mm 0 mps 746 mmHg 97%
    12:00 +24°C° 3.6 mm 0 mps 745 mmHg 96%
    13:00 +24°C° 3.6 mm 0 mps 745 mmHg 96%
    14:00 +24°C° 3.6 mm 0 mps 744 mmHg 95%
    15:00 +24°C° 0 mm 0 mps 744 mmHg 94%
    16:00 +25°C° 0 mm 0 mps 743 mmHg 92%
    17:00 +25°C° 0 mm 0 mps 743 mmHg 91%
    18:00 +24°C° 0 mm 0 mps 743 mmHg 93%
    19:00 +24°C° 0 mm 0 mps 743 mmHg 95%
    20:00 +23°C° 0 mm 0 mps 743 mmHg 97%
    21:00 +23°C° 0 mm 0 mps 744 mmHg 97%
    22:00 +23°C° 0 mm 0 mps 744 mmHg 97%
    23:00 +23°C° 0 mm 0 mps 745 mmHg 97%
    Show more